| time (UTC) | temp F | wind direction | speed MPH | gust MPH | rain 1hr in | rain 24hr in | rain mn in | humidity % | barometer mb |
| 20260902125327 | 76 | 301 | 12.0 | 16.0 | 0.00 | 0.00 | 0.00 | 18 | 1012.1 |
| 20260902124819 | 77 | 283 | 12.0 | 16.0 | 0.00 | 0.00 | 0.00 | 17 | 1012.1 |
| 20260902124331 | 77 | 290 | 13.0 | 16.0 | 0.00 | 0.00 | 0.00 | 17 | 1012.1 |
| 20260902123824 | 77 | 277 | 12.0 | 18.0 | 0.00 | 0.00 | 0.00 | 16 | 1012.1 |
| 20260902123315 | 78 | 301 | 14.0 | 22.0 | 0.00 | 0.00 | 0.00 | 16 | 1012.1 |
| 20260902122829 | 78 | 296 | 15.0 | 19.0 | 0.00 | 0.00 | 0.00 | 16 | 1012.1 |
| 20260902122321 | 78 | 273 | 14.0 | 21.0 | 0.00 | 0.00 | 0.00 | 16 | 1012.1 |
| 20260902121853 | 78 | 292 | 16.0 | 25.0 | 0.00 | 0.00 | 0.00 | 16 | 1012.0 |
| 20260902121322 | 78 | 275 | 17.0 | 25.0 | 0.00 | 0.00 | 0.00 | 16 | 1011.9 |
| 20260902120818 | 78 | 291 | 18.0 | 25.0 | 0.00 | 0.00 | 0.00 | 16 | 1012.0 |
| 20260902120329 | 78 | 276 | 16.0 | 23.0 | 0.00 | 0.00 | 0.00 | 17 | 1012.1 |
| 20260902115819 | 78 | 280 | 17.0 | 24.0 | 0.00 | 0.00 | 0.00 | 16 | 1012.1 |
| 20260902115330 | 78 | 268 | 15.0 | 25.0 | 0.00 | 0.00 | 0.00 | 17 | 1012.1 |
| 20260902114842 | 77 | 280 | 18.0 | 25.0 | 0.00 | 0.00 | 0.00 | 17 | 1012.1 |
| 20260902114332 | 77 | 302 | 16.0 | 22.0 | 0.00 | 0.00 | 0.00 | 18 | 1012.0 |
| 20260902113824 | 77 | 296 | 14.0 | 22.0 | 0.00 | 0.00 | 0.00 | 18 | 1012.0 |
| 20260902113334 | 77 | 298 | 17.0 | 24.0 | 0.00 | 0.00 | 0.00 | 18 | 1012.0 |
| 20260902112825 | 77 | 284 | 16.0 | 24.0 | 0.00 | 0.00 | 0.00 | 19 | 1012.1 |
| 20260902112316 | 77 | 284 | 14.0 | 19.0 | 0.00 | 0.00 | 0.00 | 19 | 1012.0 |
| 20260902111813 | 77 | 309 | 13.0 | 23.0 | 0.00 | 0.00 | 0.00 | 19 | 1012.1 |
| 20260902111324 | 77 | 300 | 16.0 | 23.0 | 0.00 | 0.00 | 0.00 | 19 | 1012.0 |
| 20260902110817 | 77 | 282 | 14.0 | 18.0 | 0.00 | 0.00 | 0.00 | 20 | 1012.0 |
| 20260902110329 | 76 | 302 | 15.0 | 18.0 | 0.00 | 0.00 | 0.00 | 22 | 1012.0 |
| 20260902105839 | 76 | 296 | 14.0 | 18.0 | 0.00 | 0.00 | 0.00 | 22 | 1012.0 |
| 20260902105329 | 75 | 309 | 12.0 | 18.0 | 0.00 | 0.00 | 0.00 | 23 | 1012.0 |
| 20260902104822 | 75 | 290 | 11.0 | 13.0 | 0.00 | 0.00 | 0.00 | 24 | 1012.1 |
| 20260902104333 | 75 | 290 | 10.0 | 13.0 | 0.00 | 0.00 | 0.00 | 26 | 1012.1 |
| 20260902103845 | 75 | 295 | 10.0 | 17.0 | 0.00 | 0.00 | 0.00 | 25 | 1012.1 |
| 20260902103315 | 75 | 282 | 11.0 | 17.0 | 0.00 | 0.00 | 0.00 | 26 | 1012.1 |
| 20260902102826 | 75 | 283 | 10.0 | 14.0 | 0.00 | 0.00 | 0.00 | 26 | 1012.1 |
| 20260902102321 | 75 | 279 | 10.0 | 15.0 | 0.00 | 0.00 | 0.00 | 26 | 1012.1 |
| 20260902101814 | 76 | 306 | 11.0 | 15.0 | 0.00 | 0.00 | 0.00 | 25 | 1012.2 |
| 20260902101344 | 76 | 299 | 12.0 | 18.0 | 0.00 | 0.00 | 0.00 | 25 | 1012.1 |
| 20260902100815 | 76 | 305 | 12.0 | 18.0 | 0.00 | 0.00 | 0.00 | 25 | 1012.1 |
| 20260902100326 | 77 | 290 | 15.0 | 18.0 | 0.00 | 0.00 | 0.00 | 24 | 1012.1 |
| 20260902095816 | 76 | 275 | 12.0 | 16.0 | 0.00 | 0.00 | 0.00 | 24 | 1012.1 |
| 20260902095325 | 77 | 288 | 13.0 | 20.0 | 0.00 | 0.00 | 0.00 | 24 | 1012.1 |
| 20260902094817 | 76 | 285 | 12.0 | 16.0 | 0.00 | 0.00 | 0.00 | 25 | 1012.1 |
| 20260902094327 | 76 | 298 | 10.0 | 14.0 | 0.00 | 0.00 | 0.00 | 25 | 1012.2 |
| 20260902093820 | 76 | 300 | 10.0 | 16.0 | 0.00 | 0.00 | 0.00 | 24 | 1012.2 |
| 20260902093316 | 77 | 279 | 11.0 | 17.0 | 0.00 | 0.00 | 0.00 | 24 | 1012.3 |
| 20260902092829 | 77 | 267 | 12.0 | 17.0 | 0.00 | 0.00 | 0.00 | 24 | 1012.2 |
| 20260902092320 | 77 | 267 | 14.0 | 21.0 | 0.00 | 0.00 | 0.00 | 26 | 1012.2 |
| 20260902091813 | 77 | 273 | 15.0 | 22.0 | 0.00 | 0.00 | 0.00 | 25 | 1012.2 |
| 20260902091324 | 78 | 285 | 15.0 | 23.0 | 0.00 | 0.00 | 0.00 | 25 | 1012.2 |
| 20260902090816 | 78 | 292 | 17.0 | 24.0 | 0.00 | 0.00 | 0.00 | 24 | 1012.2 |
| 20260902090328 | 78 | 290 | 16.0 | 25.0 | 0.00 | 0.00 | 0.00 | 23 | 1012.2 |
| 20260902085817 | 78 | 277 | 17.0 | 25.0 | 0.00 | 0.00 | 0.00 | 24 | 1012.2 |
| 20260902085313 | 78 | 271 | 16.0 | 23.0 | 0.00 | 0.00 | 0.00 | 24 | 1012.2 |
| 20260902084825 | 78 | 270 | 17.0 | 23.0 | 0.00 | 0.00 | 0.00 | 24 | 1012.3 |
| 20260902084317 | 79 | 250 | 18.0 | 25.0 | 0.00 | 0.00 | 0.00 | 23 | 1012.2 |
| 20260902083830 | 79 | 265 | 19.0 | 25.0 | 0.00 | 0.00 | 0.00 | 22 | 1012.3 |
| 20260902083334 | 79 | 280 | 15.0 | 23.0 | 0.00 | 0.00 | 0.00 | 23 | 1012.2 |
| 20260902082825 | 78 | 286 | 15.0 | 23.0 | 0.00 | 0.00 | 0.00 | 24 | 1012.2 |
| 20260902082316 | 79 | 259 | 18.0 | 29.0 | 0.00 | 0.00 | 0.00 | 23 | 1012.2 |
| 20260902081829 | 79 | 250 | 19.0 | 27.0 | 0.00 | 0.00 | 0.00 | 23 | 1012.1 |
| 20260902081340 | 78 | 281 | 14.0 | 27.0 | 0.00 | 0.00 | 0.00 | 23 | 1012.1 |
| 20260902080831 | 79 | 258 | 18.0 | 27.0 | 0.00 | 0.00 | 0.00 | 24 | 1012.2 |
| 20260902080327 | 79 | 271 | 18.0 | 26.0 | 0.00 | 0.00 | 0.00 | 24 | 1012.3 |
| 20260902075817 | 79 | 264 | 19.0 | 26.0 | 0.00 | 0.00 | 0.00 | 23 | 1012.3 |
| 20260902075328 | 79 | 264 | 14.0 | 25.0 | 0.00 | 0.00 | 0.00 | 23 | 1012.3 |
| 20260902074820 | 79 | 248 | 18.0 | 25.0 | 0.00 | 0.00 | 0.00 | 23 | 1012.2 |
| 20260902074331 | 79 | 252 | 18.0 | 27.0 | 0.00 | 0.00 | 0.00 | 23 | 1012.2 |
| 20260902073944 | 79 | 254 | 19.0 | 27.0 | 0.00 | 0.00 | 0.00 | 22 | 1012.2 |
| 20260902073331 | 79 | 273 | 16.0 | 23.0 | 0.00 | 0.00 | 0.00 | 22 | 1012.2 |
| 20260902072824 | 79 | 294 | 15.0 | 21.0 | 0.00 | 0.00 | 0.00 | 23 | 1012.2 |
| 20260902072319 | 79 | 304 | 5.0 | 17.0 | 0.00 | 0.00 | 0.00 | 24 | 1012.0 |
| 20260902071832 | 79 | 289 | 7.0 | 16.0 | 0.00 | 0.00 | 0.00 | 24 | 1011.9 |
| 20260902071323 | 79 | 267 | 12.0 | 18.0 | 0.00 | 0.00 | 0.00 | 25 | 1011.9 |
| 20260902070815 | 79 | 260 | 14.0 | 22.0 | 0.00 | 0.00 | 0.00 | 26 | 1011.9 |
| 20260902070346 | 79 | 259 | 15.0 | 25.0 | 0.00 | 0.00 | 0.00 | 25 | 1011.9 |
| 20260902065815 | 79 | 260 | 14.0 | 25.0 | 0.00 | 0.00 | 0.00 | 23 | 1011.8 |
| 20260902065325 | 80 | 248 | 19.0 | 25.0 | 0.00 | 0.00 | 0.00 | 23 | 1011.8 |
| 20260902064817 | 80 | 259 | 16.0 | 25.0 | 0.00 | 0.00 | 0.00 | 23 | 1011.8 |
| 20260902064328 | 80 | 257 | 19.0 | 24.0 | 0.00 | 0.00 | 0.00 | 23 | 1011.7 |
| 20260902063824 | 80 | 271 | 15.0 | 22.0 | 0.00 | 0.00 | 0.00 | 22 | 1011.7 |
| 20260902063315 | 80 | 252 | 13.0 | 25.0 | 0.00 | 0.00 | 0.00 | 22 | 1011.6 |
| 20260902062828 | 80 | 257 | 17.0 | 25.0 | 0.00 | 0.00 | 0.00 | 23 | 1011.7 |
| 20260902062320 | 80 | 242 | 16.0 | 20.0 | 0.00 | 0.00 | 0.00 | 23 | 1011.6 |
| 20260902061813 | 80 | 291 | 15.0 | 23.0 | 0.00 | 0.00 | 0.00 | 22 | 1011.4 |
| 20260902061324 | 81 | 269 | 14.0 | 23.0 | 0.00 | 0.00 | 0.00 | 22 | 1011.4 |
| 20260902060818 | 81 | 268 | 13.0 | 19.0 | 0.00 | 0.00 | 0.00 | 22 | 1011.4 |
| 20260902060329 | 81 | 276 | 11.0 | 18.0 | 0.00 | 0.00 | 0.00 | 22 | 1011.4 |
| 20260902055822 | 81 | 298 | 14.0 | 20.0 | 0.00 | 0.00 | 0.00 | 22 | 1011.4 |
| 20260902055313 | 81 | 319 | 16.0 | 20.0 | 0.00 | 0.00 | 0.00 | 22 | 1011.3 |
| 20260902054846 | 81 | 279 | 12.0 | 19.0 | 0.00 | 0.00 | 0.00 | 22 | 1011.4 |
| 20260902054316 | 81 | 289 | 13.0 | 17.0 | 0.00 | 0.00 | 0.00 | 22 | 1011.2 |
| 20260902053830 | 81 | 281 | 10.0 | 16.0 | 0.00 | 0.00 | 0.00 | 23 | 1011.3 |
| 20260902053322 | 81 | 271 | 12.0 | 16.0 | 0.00 | 0.00 | 0.00 | 23 | 1011.5 |
| 20260902052815 | 81 | 273 | 13.0 | 18.0 | 0.00 | 0.00 | 0.00 | 22 | 1011.6 |
| 20260902052327 | 81 | 268 | 12.0 | 20.0 | 0.00 | 0.00 | 0.00 | 22 | 1011.6 |
| 20260902051839 | 81 | 281 | 12.0 | 25.0 | 0.00 | 0.00 | 0.00 | 22 | 1011.6 |
| 20260902051313 | 81 | 292 | 16.0 | 25.0 | 0.00 | 0.00 | 0.00 | 21 | 1011.7 |
| 20260902050847 | 81 | 274 | 14.0 | 21.0 | 0.00 | 0.00 | 0.00 | 21 | 1011.7 |
| 20260902050318 | 81 | 293 | 13.0 | 26.0 | 0.00 | 0.00 | 0.00 | 21 | 1011.7 |
| 20260902045828 | 82 | 287 | 17.0 | 26.0 | 0.00 | 0.00 | 0.00 | 21 | 1011.7 |
| 20260902045318 | 81 | 311 | 18.0 | 23.0 | 0.00 | 0.00 | 0.00 | 21 | 1011.7 |
| 20260902044831 | 82 | 296 | 16.0 | 26.0 | 0.00 | 0.00 | 0.00 | 21 | 1011.7 |
| 20260902044322 | 82 | 288 | 18.0 | 25.0 | 0.00 | 0.00 | 0.00 | 21 | 1011.7 |
| 20260902043835 | 82 | 284 | 20.0 | 30.0 | 0.00 | 0.00 | 0.00 | 21 | 1011.5 |
| 20260902043345 | 82 | 286 | 17.0 | 28.0 | 0.00 | 0.00 | 0.00 | 21 | 1011.4 |
| 20260902042816 | 82 | 309 | 18.0 | 28.0 | 0.00 | 0.00 | 0.00 | 21 | 1011.3 |
| 20260902042347 | 82 | 309 | 18.0 | 26.0 | 0.00 | 0.00 | 0.00 | 21 | 1011.2 |
| 20260902041839 | 82 | 302 | 16.0 | 25.0 | 0.00 | 0.00 | 0.00 | 21 | 1011.2 |
| 20260902041313 | 82 | 270 | 18.0 | 25.0 | 0.00 | 0.00 | 0.00 | 21 | 1011.1 |
| 20260902040827 | 83 | 298 | 18.0 | 26.0 | 0.00 | 0.00 | 0.00 | 21 | 1011.1 |
| 20260902040338 | 83 | 273 | 21.0 | 28.0 | 0.00 | 0.00 | 0.00 | 20 | 1010.9 |
| 20260902035827 | 83 | 288 | 18.0 | 28.0 | 0.00 | 0.00 | 0.00 | 21 | 1010.9 |
| 20260902035317 | 83 | 276 | 17.0 | 28.0 | 0.00 | 0.00 | 0.00 | 20 | 1010.8 |
| 20260902034830 | 83 | 292 | 19.0 | 28.0 | 0.00 | 0.00 | 0.00 | 20 | 1010.8 |
| 20260902034341 | 84 | 275 | 18.0 | 25.0 | 0.00 | 0.00 | 0.00 | 20 | 1010.7 |
| 20260902033832 | 84 | 317 | 15.0 | 24.0 | 0.00 | 0.00 | 0.00 | 20 | 1010.7 |
| 20260902033322 | 84 | 304 | 17.0 | 24.0 | 0.00 | 0.00 | 0.00 | 20 | 1010.6 |
| 20260902032815 | 84 | 293 | 16.0 | 22.0 | 0.00 | 0.00 | 0.00 | 20 | 1010.5 |
| 20260902032331 | 84 | 306 | 15.0 | 25.0 | 0.00 | 0.00 | 0.00 | 20 | 1010.4 |
| 20260902031825 | 85 | 286 | 19.0 | 25.0 | 0.00 | 0.00 | 0.00 | 19 | 1010.3 |
| 20260902031316 | 85 | 284 | 17.0 | 26.0 | 0.00 | 0.00 | 0.00 | 20 | 1010.1 |
| 20260902030849 | 85 | 289 | 20.0 | 26.0 | 0.00 | 0.00 | 0.00 | 20 | 1010.1 |
| 20260902030319 | 85 | 297 | 17.0 | 28.0 | 0.00 | 0.00 | 0.00 | 20 | 1010.2 |
| 20260902025828 | 86 | 307 | 19.0 | 28.0 | 0.00 | 0.00 | 0.00 | 20 | 1010.0 |
| 20260902025320 | 86 | 296 | 20.0 | 26.0 | 0.00 | 0.00 | 0.00 | 20 | 1009.9 |
| 20260902024833 | 86 | 291 | 19.0 | 24.0 | 0.00 | 0.00 | 0.00 | 20 | 1010.0 |
| 20260902024324 | 86 | 277 | 16.0 | 25.0 | 0.00 | 0.00 | 0.00 | 20 | 1009.8 |
| 20260902023821 | 86 | 259 | 20.0 | 25.0 | 0.00 | 0.00 | 0.00 | 20 | 1009.8 |
| 20260902023332 | 87 | 291 | 17.0 | 26.0 | 0.00 | 0.00 | 0.00 | 21 | 1009.7 |
| 20260902022825 | 87 | 293 | 20.0 | 27.0 | 0.00 | 0.00 | 0.00 | 20 | 1009.7 |
| 20260902022316 | 87 | 273 | 20.0 | 29.0 | 0.00 | 0.00 | 0.00 | 21 | 1009.6 |
| 20260902021828 | 87 | 285 | 21.0 | 29.0 | 0.00 | 0.00 | 0.00 | 21 | 1009.5 |
| 20260902021320 | 88 | 290 | 14.0 | 21.0 | 0.00 | 0.00 | 0.00 | 21 | 1009.6 |
| 20260902020813 | 88 | 274 | 16.0 | 23.0 | 0.00 | 0.00 | 0.00 | 20 | 1009.6 |
| 20260902020345 | 89 | 288 | 18.0 | 23.0 | 0.00 | 0.00 | 0.00 | 20 | 1009.6 |
| 20260902015818 | 89 | 261 | 13.0 | 21.0 | 0.00 | 0.00 | 0.00 | 20 | 1009.6 |
| 20260902015329 | 89 | 307 | 14.0 | 23.0 | 0.00 | 0.00 | 0.00 | 20 | 1009.6 |
| 20260902014841 | 90 | 261 | 18.0 | 23.0 | 0.00 | 0.00 | 0.00 | 20 | 1009.5 |
| 20260902014330 | 90 | 265 | 18.0 | 25.0 | 0.00 | 0.00 | 0.00 | 20 | 1009.5 |
| 20260902013824 | 90 | 271 | 19.0 | 25.0 | 0.00 | 0.00 | 0.00 | 19 | 1009.5 |
| 20260902013316 | 91 | 288 | 19.0 | 26.0 | 0.00 | 0.00 | 0.00 | 19 | 1009.4 |
| 20260902012828 | 92 | 273 | 16.0 | 23.0 | 0.00 | 0.00 | 0.00 | 19 | 1009.4 |
| 20260902012318 | 92 | 270 | 14.0 | 22.0 | 0.00 | 0.00 | 0.00 | 18 | 1009.4 |
| 20260902011852 | 92 | 274 | 15.0 | 21.0 | 0.00 | 0.00 | 0.00 | 18 | 1009.5 |
| 20260902011322 | 92 | 288 | 15.0 | 26.0 | 0.00 | 0.00 | 0.00 | 18 | 1009.5 |
| 20260902010819 | 93 | 265 | 20.0 | 26.0 | 0.00 | 0.00 | 0.00 | 18 | 1009.5 |
| 20260902010331 | 93 | 277 | 18.0 | 25.0 | 0.00 | 0.00 | 0.00 | 17 | 1009.4 |
| 20260902005819 | 94 | 275 | 17.0 | 25.0 | 0.00 | 0.00 | 0.00 | 16 | 1009.4 |
| 20260902005330 | 94 | 267 | 17.0 | 27.0 | 0.00 | 0.00 | 0.00 | 16 | 1009.4 |
| 20260902004822 | 94 | 273 | 19.0 | 27.0 | 0.00 | 0.00 | 0.00 | 16 | 1009.4 |
| 20260902004314 | 94 | 240 | 17.0 | 25.0 | 0.00 | 0.00 | 0.00 | 16 | 1009.4 |
| 20260902003827 | 95 | 269 | 19.0 | 25.0 | 0.00 | 0.00 | 0.00 | 15 | 1009.4 |
| 20260902003319 | 95 | 327 | 16.0 | 23.0 | 0.00 | 0.00 | 0.00 | 15 | 1009.4 |
| 20260902002816 | 95 | 275 | 18.0 | 23.0 | 0.00 | 0.00 | 0.00 | 14 | 1009.5 |
| 20260902002347 | 96 | 262 | 18.0 | 23.0 | 0.00 | 0.00 | 0.00 | 14 | 1009.5 |
| 20260902001839 | 96 | 294 | 16.0 | 22.0 | 0.00 | 0.00 | 0.00 | 14 | 1009.5 |
| 20260902001329 | 96 | 271 | 16.0 | 24.0 | 0.00 | 0.00 | 0.00 | 13 | 1009.5 |
| 20260902000842 | 96 | 292 | 15.0 | 24.0 | 0.00 | 0.00 | 0.00 | 13 | 1009.5 |
| 20260902000333 | 96 | 270 | 18.0 | 24.0 | 0.00 | 0.00 | 0.00 | 13 | 1009.5 |
| 20260901235842 | 96 | 281 | 18.0 | 24.0 | 0.00 | 0.00 | 0.00 | 12 | 1009.6 |
| 20260901235314 | 96 | 279 | 20.0 | 24.0 | 0.00 | 0.00 | 0.00 | 12 | 1009.6 |
| 20260901234828 | 97 | 264 | 17.0 | 23.0 | 0.00 | 0.00 | 0.00 | 12 | 1009.6 |
| 20260901234319 | 96 | 238 | 12.0 | 23.0 | 0.00 | 0.00 | 0.00 | 12 | 1009.6 |
| 20260901233853 | 97 | 232 | 13.0 | 23.0 | 0.00 | 0.00 | 0.00 | 12 | 1009.6 |
| 20260901233324 | 97 | 271 | 18.0 | 25.0 | 0.00 | 0.00 | 0.00 | 11 | 1009.6 |
| 20260901232842 | 97 | 256 | 12.0 | 25.0 | 0.00 | 0.00 | 0.00 | 12 | 1009.7 |
| 20260901232332 | 97 | 273 | 16.0 | 26.0 | 0.00 | 0.00 | 0.00 | 12 | 1009.6 |
| 20260901231824 | 97 | 281 | 12.0 | 21.0 | 0.00 | 0.00 | 0.00 | 12 | 1009.8 |
| 20260901231314 | 97 | 261 | 17.0 | 26.0 | 0.00 | 0.00 | 0.00 | 12 | 1009.7 |
| 20260901230827 | 97 | 267 | 16.0 | 21.0 | 0.00 | 0.00 | 0.00 | 12 | 1009.7 |
| 20260901230318 | 97 | 271 | 15.0 | 20.0 | 0.00 | 0.00 | 0.00 | 12 | 1009.7 |
| 20260901225847 | 97 | 282 | 13.0 | 26.0 | 0.00 | 0.00 | 0.00 | 12 | 1009.8 |
| 20260901225316 | 97 | 232 | 15.0 | 26.0 | 0.00 | 0.00 | 0.00 | 12 | 1009.9 |
| 20260901224827 | 97 | 265 | 17.0 | 25.0 | 0.00 | 0.00 | 0.00 | 12 | 1009.8 |
| 20260901224318 | 98 | 254 | 16.0 | 25.0 | 0.00 | 0.00 | 0.00 | 12 | 1009.9 |
| 20260901223829 | 98 | 267 | 14.0 | 21.0 | 0.00 | 0.00 | 0.00 | 12 | 1010.0 |
| 20260901223323 | 97 | 309 | 15.0 | 20.0 | 0.00 | 0.00 | 0.00 | 12 | 1010.0 |
| 20260901222835 | 97 | 288 | 14.0 | 27.0 | 0.00 | 0.00 | 0.00 | 12 | 1010.1 |
| 20260901222325 | 98 | 284 | 14.0 | 27.0 | 0.00 | 0.00 | 0.00 | 11 | 1010.1 |
| 20260901221816 | 98 | 296 | 13.0 | 22.0 | 0.00 | 0.00 | 0.00 | 11 | 1010.1 |
| 20260901221326 | 98 | 259 | 13.0 | 20.0 | 0.00 | 0.00 | 0.00 | 11 | 1010.3 |
| 20260901220819 | 97 | 271 | 15.0 | 23.0 | 0.00 | 0.00 | 0.00 | 12 | 1010.2 |
| 20260901220350 | 97 | 291 | 8.0 | 23.0 | 0.00 | 0.00 | 0.00 | 12 | 1010.3 |
| 20260901215817 | 97 | 250 | 11.0 | 20.0 | 0.00 | 0.00 | 0.00 | 12 | 1010.3 |
| 20260901215329 | 97 | 267 | 15.0 | 20.0 | 0.00 | 0.00 | 0.00 | 12 | 1010.3 |
| 20260901214822 | 97 | 319 | 15.0 | 20.0 | 0.00 | 0.00 | 0.00 | 12 | 1010.4 |
| 20260901214337 | 97 | 309 | 14.0 | 21.0 | 0.00 | 0.00 | 0.00 | 12 | 1010.5 |
| 20260901213849 | 97 | 306 | 15.0 | 24.0 | 0.00 | 0.00 | 0.00 | 12 | 1010.5 |
| 20260901213319 | 97 | 297 | 12.0 | 24.0 | 0.00 | 0.00 | 0.00 | 12 | 1010.5 |
| 20260901212829 | 97 | 254 | 15.0 | 25.0 | 0.00 | 0.00 | 0.00 | 12 | 1010.6 |
| 20260901212319 | 97 | 315 | 10.0 | 20.0 | 0.00 | 0.00 | 0.00 | 12 | 1010.7 |
| 20260901211831 | 97 | 337 | 10.0 | 20.0 | 0.00 | 0.00 | 0.00 | 12 | 1010.7 |
| 20260901211322 | 97 | 221 | 11.0 | 20.0 | 0.00 | 0.00 | 0.00 | 11 | 1010.7 |
| 20260901210815 | 97 | 263 | 12.0 | 20.0 | 0.00 | 0.00 | 0.00 | 11 | 1010.8 |
| 20260901210346 | 97 | 319 | 11.0 | 21.0 | 0.00 | 0.00 | 0.00 | 11 | 1010.8 |
| 20260901205814 | 97 | 281 | 11.0 | 19.0 | 0.00 | 0.00 | 0.00 | 11 | 1010.8 |
| 20260901205325 | 97 | 317 | 13.0 | 20.0 | 0.00 | 0.00 | 0.00 | 11 | 1011.0 |
| 20260901204818 | 97 | 307 | 13.0 | 20.0 | 0.00 | 0.00 | 0.00 | 11 | 1010.9 |
| 20260901204334 | 97 | 295 | 12.0 | 24.0 | 0.00 | 0.00 | 0.00 | 11 | 1011.0 |
| 20260901203826 | 97 | 244 | 10.0 | 24.0 | 0.00 | 0.00 | 0.00 | 11 | 1011.0 |
| 20260901203316 | 97 | 279 | 12.0 | 15.0 | 0.00 | 0.00 | 0.00 | 11 | 1011.1 |
| 20260901202827 | 96 | 273 | 10.0 | 17.0 | 0.00 | 0.00 | 0.00 | 11 | 1011.2 |
| 20260901202317 | 96 | 296 | 10.0 | 17.0 | 0.00 | 0.00 | 0.00 | 11 | 1011.2 |
| 20260901201830 | 96 | 268 | 13.0 | 17.0 | 0.00 | 0.00 | 0.00 | 11 | 1011.4 |
| 20260901201321 | 96 | 288 | 9.0 | 19.0 | 0.00 | 0.00 | 0.00 | 11 | 1011.5 |
| 20260901200833 | 96 | 330 | 12.0 | 19.0 | 0.00 | 0.00 | 0.00 | 11 | 1011.6 |
| 20260901200325 | 95 | 254 | 6.0 | 15.0 | 0.00 | 0.00 | 0.00 | 12 | 1011.6 |
| 20260901195817 | 95 | 226 | 6.0 | 21.0 | 0.00 | 0.00 | 0.00 | 12 | 1011.7 |
| 20260901195328 | 95 | 251 | 9.0 | 21.0 | 0.00 | 0.00 | 0.00 | 12 | 1011.8 |
| 20260901194821 | 95 | 276 | 7.0 | 19.0 | 0.00 | 0.00 | 0.00 | 12 | 1011.8 |
| 20260901194352 | 95 | 266 | 11.0 | 20.0 | 0.00 | 0.00 | 0.00 | 11 | 1011.9 |
| 20260901193823 | 96 | 261 | 12.0 | 20.0 | 0.00 | 0.00 | 0.00 | 11 | 1011.9 |
| 20260901193334 | 96 | 231 | 10.0 | 16.0 | 0.00 | 0.00 | 0.00 | 12 | 1012.0 |
| 20260901192827 | 95 | 284 | 8.0 | 17.0 | 0.00 | 0.00 | 0.00 | 11 | 1011.9 |
| 20260901192319 | 95 | 280 | 8.0 | 17.0 | 0.00 | 0.00 | 0.00 | 12 | 1012.0 |
| 20260901191832 | 95 | 275 | 9.0 | 15.0 | 0.00 | 0.00 | 0.00 | 11 | 1012.1 |
| 20260901191326 | 96 | 310 | 8.0 | 17.0 | 0.00 | 0.00 | 0.00 | 11 | 1012.1 |
| 20260901190817 | 95 | 210 | 12.0 | 17.0 | 0.00 | 0.00 | 0.00 | 11 | 1012.2 |
| 20260901190328 | 95 | 248 | 11.0 | 16.0 | 0.00 | 0.00 | 0.00 | 11 | 1012.2 |
| 20260901185817 | 94 | 271 | 8.0 | 15.0 | 0.00 | 0.00 | 0.00 | 11 | 1012.2 |
| 20260901185328 | 94 | 267 | 12.0 | 15.0 | 0.00 | 0.00 | 0.00 | 11 | 1012.3 |
| 20260901184842 | 94 | 216 | 10.0 | 15.0 | 0.00 | 0.00 | 0.00 | 12 | 1012.3 |
| 20260901184313 | 94 | 280 | 11.0 | 14.0 | 0.00 | 0.00 | 0.00 | 12 | 1012.4 |
| 20260901183825 | 94 | 254 | 9.0 | 14.0 | 0.00 | 0.00 | 0.00 | 12 | 1012.6 |
| 20260901183317 | 94 | 305 | 9.0 | 12.0 | 0.00 | 0.00 | 0.00 | 12 | 1012.5 |
| 20260901182850 | 94 | 290 | 7.0 | 12.0 | 0.00 | 0.00 | 0.00 | 12 | 1012.6 |
| 20260901182319 | 93 | 56 | 3.0 | 10.0 | 0.00 | 0.00 | 0.00 | 12 | 1012.6 |
| 20260901181816 | 92 | 348 | 4.0 | 9.0 | 0.00 | 0.00 | 0.00 | 13 | 1012.6 |
| 20260901181327 | 92 | 286 | 2.0 | 11.0 | 0.00 | 0.00 | 0.00 | 13 | 1012.7 |
| 20260901180818 | 92 | 298 | 3.0 | 13.0 | 0.00 | 0.00 | 0.00 | 12 | 1012.7 |
| 20260901180328 | 92 | 302 | 9.0 | 16.0 | 0.00 | 0.00 | 0.00 | 12 | 1012.7 |
| 20260901175818 | 92 | 271 | 7.0 | 16.0 | 0.00 | 0.00 | 0.00 | 12 | 1012.7 |
| 20260901175330 | 92 | 282 | 10.0 | 16.0 | 0.00 | 0.00 | 0.00 | 12 | 1012.7 |
| 20260901174822 | 92 | 246 | 10.0 | 16.0 | 0.00 | 0.00 | 0.00 | 11 | 1012.8 |
| 20260901174353 | 92 | 281 | 8.0 | 14.0 | 0.00 | 0.00 | 0.00 | 11 | 1012.8 |
| 20260901173825 | 91 | 257 | 9.0 | 14.0 | 0.00 | 0.00 | 0.00 | 11 | 1012.8 |
| 20260901173320 | 92 | 297 | 8.0 | 15.0 | 0.00 | 0.00 | 0.00 | 11 | 1012.8 |
| 20260901172832 | 91 | 257 | 10.0 | 15.0 | 0.00 | 0.00 | 0.00 | 11 | 1012.8 |
| 20260901172321 | 91 | 245 | 9.0 | 17.0 | 0.00 | 0.00 | 0.00 | 11 | 1012.7 |
| 20260901171852 | 91 | 237 | 12.0 | 17.0 | 0.00 | 0.00 | 0.00 | 11 | 1012.7 |
| 20260901171322 | 91 | 252 | 12.0 | 18.0 | 0.00 | 0.00 | 0.00 | 11 | 1012.7 |
| 20260901170835 | 91 | 244 | 11.0 | 18.0 | 0.00 | 0.00 | 0.00 | 11 | 1012.6 |
| 20260901170326 | 91 | 271 | 10.0 | 16.0 | 0.00 | 0.00 | 0.00 | 11 | 1012.6 |
| 20260901165814 | 90 | 300 | 11.0 | 14.0 | 0.00 | 0.00 | 0.00 | 10 | 1012.6 |
| 20260901165325 | 90 | 261 | 9.0 | 13.0 | 0.00 | 0.00 | 0.00 | 10 | 1012.6 |
| 20260901164817 | 90 | 325 | 9.0 | 14.0 | 0.00 | 0.00 | 0.00 | 10 | 1012.5 |
| 20260901164328 | 90 | 302 | 9.0 | 15.0 | 0.00 | 0.00 | 0.00 | 10 | 1012.5 |
| 20260901163821 | 89 | 286 | 11.0 | 15.0 | 0.00 | 0.00 | 0.00 | 10 | 1012.5 |
| 20260901163316 | 89 | 313 | 10.0 | 13.0 | 0.00 | 0.00 | 0.00 | 10 | 1012.5 |
| 20260901162829 | 89 | 298 | 9.0 | 12.0 | 0.00 | 0.00 | 0.00 | 10 | 1012.5 |
| 20260901162320 | 89 | 313 | 10.0 | 15.0 | 0.00 | 0.00 | 0.00 | 10 | 1012.3 |
| 20260901161833 | 88 | 265 | 12.0 | 15.0 | 0.00 | 0.00 | 0.00 | 10 | 1012.3 |
| 20260901161324 | 88 | 258 | 9.0 | 15.0 | 0.00 | 0.00 | 0.00 | 10 | 1012.3 |
| 20260901160818 | 88 | 288 | 10.0 | 13.0 | 0.00 | 0.00 | 0.00 | 10 | 1012.2 |
| 20260901160350 | 88 | 291 | 9.0 | 13.0 | 0.00 | 0.00 | 0.00 | 10 | 1012.2 |
| 20260901155817 | 87 | 313 | 8.0 | 13.0 | 0.00 | 0.00 | 0.00 | 10 | 1012.2 |
| 20260901155313 | 87 | 269 | 10.0 | 12.0 | 0.00 | 0.00 | 0.00 | 10 | 1012.2 |
| 20260901154825 | 87 | 291 | 8.0 | 11.0 | 0.00 | 0.00 | 0.00 | 10 | 1012.2 |
| 20260901154316 | 86 | 267 | 9.0 | 11.0 | 0.00 | 0.00 | 0.00 | 10 | 1012.2 |
| 20260901153828 | 86 | 273 | 9.0 | 11.0 | 0.00 | 0.00 | 0.00 | 10 | 1012.1 |
| 20260901153339 | 86 | 270 | 9.0 | 11.0 | 0.00 | 0.00 | 0.00 | 11 | 1012.1 |
| 20260901152830 | 85 | 273 | 8.0 | 10.0 | 0.00 | 0.00 | 0.00 | 11 | 1012.1 |
| 20260901152322 | 85 | 273 | 8.0 | 12.0 | 0.00 | 0.00 | 0.00 | 11 | 1012.0 |
| 20260901151814 | 85 | 270 | 10.0 | 12.0 | 0.00 | 0.00 | 0.00 | 11 | 1012.0 |
| 20260901151324 | 85 | 278 | 8.0 | 11.0 | 0.00 | 0.00 | 0.00 | 11 | 1012.0 |
| 20260901150821 | 84 | 268 | 7.0 | 11.0 | 0.00 | 0.00 | 0.00 | 11 | 1012.0 |
| 20260901150352 | 84 | 282 | 9.0 | 11.0 | 0.00 | 0.00 | 0.00 | 11 | 1012.0 |
| 20260901145819 | 83 | 309 | 6.0 | 9.0 | 0.00 | 0.00 | 0.00 | 12 | 1012.0 |
| 20260901145329 | 83 | 298 | 7.0 | 9.0 | 0.00 | 0.00 | 0.00 | 12 | 1012.1 |
| 20260901144841 | 82 | 292 | 7.0 | 10.0 | 0.00 | 0.00 | 0.00 | 13 | 1012.0 |
| 20260901144328 | 81 | 279 | 7.0 | 10.0 | 0.00 | 0.00 | 0.00 | 13 | 1011.9 |
| 20260901143841 | 81 | 259 | 3.0 | 8.0 | 0.00 | 0.00 | 0.00 | 14 | 1011.9 |
| 20260901143330 | 80 | 307 | 4.0 | 9.0 | 0.00 | 0.00 | 0.00 | 14 | 1011.9 |
| 20260901142821 | 79 | 283 | 7.0 | 10.0 | 0.00 | 0.00 | 0.00 | 15 | 1011.9 |
| 20260901142331 | 78 | 262 | 7.0 | 9.0 | 0.00 | 0.00 | 0.00 | 15 | 1011.9 |
| 20260901141822 | 77 | 259 | 5.0 | 9.0 | 0.00 | 0.00 | 0.00 | 16 | 1011.8 |
| 20260901141313 | 77 | 262 | 7.0 | 9.0 | 0.00 | 0.00 | 0.00 | 16 | 1011.8 |
| 20260901140847 | 77 | 271 | 7.0 | 9.0 | 0.00 | 0.00 | 0.00 | 16 | 1011.7 |
| 20260901140320 | 76 | 276 | 8.0 | 11.0 | 0.00 | 0.00 | 0.00 | 16 | 1011.7 |
| 20260901135849 | 76 | 261 | 9.0 | 11.0 | 0.00 | 0.00 | 0.00 | 17 | 1011.6 |
| 20260901135319 | 75 | 279 | 10.0 | 11.0 | 0.00 | 0.00 | 0.00 | 17 | 1011.5 |
| 20260901134853 | 75 | 273 | 9.0 | 11.0 | 0.00 | 0.00 | 0.00 | 17 | 1011.3 |
| 20260901134321 | 76 | 269 | 8.0 | 12.0 | 0.00 | 0.00 | 0.00 | 16 | 1011.2 |
| 20260901133833 | 76 | 269 | 9.0 | 12.0 | 0.00 | 0.00 | 0.00 | 16 | 1011.2 |
| 20260901133324 | 77 | 267 | 9.0 | 13.0 | 0.00 | 0.00 | 0.00 | 15 | 1011.0 |
| 20260901132835 | 77 | 265 | 11.0 | 15.0 | 0.00 | 0.00 | 0.00 | 15 | 1011.0 |
| 20260901132324 | 77 | 271 | 11.0 | 15.0 | 0.00 | 0.00 | 0.00 | 15 | 1011.0 |
| 20260901131817 | 76 | 286 | 9.0 | 12.0 | 0.00 | 0.00 | 0.00 | 15 | 1011.0 |
| 20260901131327 | 76 | 270 | 10.0 | 13.0 | 0.00 | 0.00 | 0.00 | 16 | 1010.9 |
| 20260901130823 | 76 | 269 | 11.0 | 13.0 | 0.00 | 0.00 | 0.00 | 16 | 1010.9 |
| 20260901130335 | 75 | 276 | 10.0 | 12.0 | 0.00 | 0.00 | 0.00 | 16 | 1010.8 |
| 20260901125822 | 75 | 275 | 10.0 | 12.0 | 0.00 | 0.00 | 0.00 | 17 | 1010.7 |